Hourly Data Report for October 06, 2016

All times are specified in Local Standard Time (LST). Add 1 hour to adjust for Daylight Saving Time where and when it is observed.

BAKER LAKE A
NUNAVUT

64°17'56.000" N
96°04'40.000" W
18.60 m
2300503
71926
YBK

Download Data

Hourly Data (October 2016)
Hourly Data Report for October 6, 2016
Temp Definition
°C
Dew Point Temp Definition
°C
Rel Hum Definition
%
Wind Dir Definition
10's deg

Wind Spd Definition
km/h
Visibility Definition
km
Stn Press Definition
kPa
Hmdx Definition


Wind Chill Definition


Weather Definition


TIME
00:00 Legend Double Dagger -0.1 -1.1 93 35 10 11.3 102.45   -3 Snow
01:00 Legend Double Dagger -0.1 -1.5 90 33 10 16.1 102.46   -3 Snow
02:00 Legend Double Dagger -0.3 -1.7 90 32 13 24.1 102.48   -4 LegendNANA
03:00 Legend Double Dagger -0.4 -1.8 90 32 13 24.1 102.45   -5 Cloudy
04:00 Legend Double Dagger -0.6 -1.9 91 31 11 24.1 102.42   -4 Snow
05:00 Legend Double Dagger -0.5 -1.8 91 32 10 24.1 102.38   -4 Snow
06:00 Legend Double Dagger -0.5 -1.8 91 33 7 32.2 102.39   -3 Snow
07:00 Legend Double Dagger -0.3 -1.6 91 32 6 32.2 102.39   -2 Snow
08:00 Legend Double Dagger 0.0 -1.3 91 34 13 40.2 102.37   -4 Snow
09:00 Legend Double Dagger 0.4 -1.4 88 32 15 40.2 102.36     Cloudy
10:00 Legend Double Dagger 0.6 -1.3 87 31 11 40.2 102.36     Snow
11:00 Legend Double Dagger 0.9 -1.2 86 33 10 40.2 102.36     Snow
12:00 Legend Double Dagger 1.1 -1.0 86 33 12 40.2 102.38     Snow
13:00 Legend Double Dagger 1.3 -1.1 84 34 16 40.2 102.38     Snow
14:00 Legend Double Dagger 1.6 -1.1 82 32 13 40.2 102.38     Snow
15:00 Legend Double Dagger 1.0 -0.5 90 32 11 32.2 102.39     Snow
16:00 Legend Double Dagger 1.2 -0.9 86 33 9 32.2 102.38     Snow
17:00 Legend Double Dagger 0.4 -2.0 84 36 8 40.2 102.41     Snow
18:00 Legend Double Dagger 0.0 -1.9 87 33 16 24.1 102.45   -5 Snow
19:00 Legend Double Dagger -0.2 -1.6 90 32 13 24.1 102.48   -4 Snow
20:00 Legend Double Dagger -0.4 -2.0 89 29 8 24.1 102.48   -3 Snow
21:00 Legend Double Dagger -0.5 -2.6 86 28 12 24.1 102.48   -4 Snow
22:00 Legend Double Dagger -0.5 -2.4 87 27 13 24.1 102.47   -5 Snow
23:00 Legend Double Dagger -0.6 -3.1 83 27 16 24.1 102.45   -5 LegendNANA

Notes on Data Quality.

Legend

  • E = Estimated
  • M = Missing
  • NA = Not Available
  • ‡ = Partner data that is not subject to review by the National Climate Archives
Date modified: